DW9356 Weather Reports


time (UTC)temp
C
wind
direction
speed
KPH
gust
KPH
rain 1hr
cm
rain 24hr
cm
rain mn
cm
humidity
%
barometer
mb
20260502180454 22 99 6.4 16.1 0.00 2.03 0.00 57 1020.2
20260502170520 22 9 6.4 14.5 0.00 2.18 0.00 57 1020.6
20260502163855 21 24 8.0 17.7 0.00 2.26 0.00 59 1020.7
20260502163329 21 5 6.4 17.7 0.00 2.29 0.00 59 1020.7
20260502162803 21 55 6.4 16.1 0.00 2.31 0.00 60 1020.7
20260502162236 21 301 6.4 16.1 0.00 2.34 0.00 62 1020.7
20260502161957 21 34 4.8 14.5 0.00 2.46 0.00 62 1020.6
20260502161450 21 26 4.8 16.1 0.00 2.54 0.00 67 1020.7
20260502160727 20 42 6.4 16.1 0.00 2.59 0.00 68 1020.6
20260502160200 20 37 8.0 12.9 0.00 2.69 0.00 66 1020.5
20260502151959 18 9 4.8 17.7 0.00 2.82 0.00 74 1020.5
20260502151455 18 13 4.8 12.9 0.00 2.82 0.00 74 1020.4
20260502150936 18 60 3.2 14.5 0.00 2.92 0.00 76 1020.4
20260502150931 18 21 4.8 16.1 0.00 2.82 0.00 76 1020.4
20260502150611 17 71 4.8 16.1 0.00 3.05 0.00 76 1020.4
20260502130501 13 340 3.2 8.0 0.00 4.19 0.00 94 1019.3
20260502130418 12 30 3.2 9.7 0.00 4.27 0.00 94 1019.2
20260502123348 11 345 3.2 8.0 0.00 4.60 0.00 95 1018.7
20260502122822 11 342 3.2 6.4 0.00 4.70 0.00 95 1018.7
20260502122255 11 9 1.6 4.8 0.00 4.75 0.00 95 1018.7
20260502121753 11 9 1.6 4.8 0.00 4.78 0.00 95 1018.7
20260502121226 11 0 1.6 4.8 0.00 4.78 0.00 95 1018.6
20260502120944 11 0 1.6 4.8 0.00 4.80 0.00 95 1018.5
20260502120219 11 0 0.0 3.2 0.00 4.83 0.00 95 1018.4
20260502115651 11 0 1.6 3.2 0.00 4.88 0.00 95 1018.3
20260502115148 11 9 1.6 6.4 0.00 4.98 0.00 95 1018.1
20260502114842 11 351 0.0 4.8 0.00 5.23 0.00 94 1018.1
20260502114731 11 17 1.6 6.4 0.00 5.13 0.00 94 1018.1
20260502113611 11 350 1.6 3.2 0.00 5.23 0.00 94 1018.1
20260502113109 11 350 1.6 4.8 0.00 5.26 0.00 94 1018.0
20260502112542 11 349 0.0 4.8 0.00 5.31 0.00 94 1017.9
20260502112305 11 350 0.0 3.2 0.00 5.33 0.00 94 1017.9
20260502111958 11 349 1.6 4.8 0.00 5.33 0.00 94 1017.9
20260502111207 11 349 1.6 4.8 0.00 5.38 0.00 94 1017.8
20260502110442 11 346 1.6 4.8 0.00 5.44 0.00 94 1017.8
20260502105917 11 350 3.2 6.4 0.00 5.49 0.00 94 1017.8
20260502105350 11 337 3.2 6.4 0.00 5.51 0.00 94 1017.7
20260502104845 11 322 3.2 6.4 0.00 5.51 0.00 94 1017.6
20260502104341 11 25 3.2 6.4 0.00 5.54 0.00 94 1017.6
20260502103837 11 34 3.2 8.0 0.00 5.54 0.00 93 1017.6
20260502103331 11 38 1.6 8.0 0.00 5.54 0.00 93 1017.5
20260502102828 11 340 1.6 6.4 0.00 5.56 0.00 93 1017.5
20260502102305 11 19 3.2 9.7 0.00 5.59 0.00 93 1017.4
20260502102023 11 11 3.2 9.7 0.00 5.74 0.00 93 1017.3
20260502101232 11 335 3.2 6.4 0.00 5.82 0.00 93 1017.2
20260502100729 11 5 3.2 6.4 0.00 5.87 0.00 93 1017.1
20260502100226 11 355 1.6 6.4 0.00 5.89 0.00 93 1017.1
20260502091246 12 30 1.6 6.4 0.00 7.39 0.00 92 1016.1
20260502090455 12 28 1.6 6.4 0.00 7.42 0.00 92 1016.0
20260502071441 13 84 3.2 17.7 0.00 9.70 0.00 93 1015.9
20260502071143 13 19 3.2 8.0 0.00 9.70 0.00 94 1016.1
20260502070347 13 19 3.2 8.0 0.00 9.70 0.00 94 1016.1
20260502065844 12 24 4.8 14.5 0.00 9.70 0.00 94 1016.1
20260502065341 12 28 4.8 14.5 0.00 9.70 0.00 94 1016.1
20260502064839 12 5 3.2 9.7 0.00 9.70 0.00 94 1015.9
20260502064551 12 112 3.2 16.1 0.00 9.70 0.00 94 1015.8
20260502063825 12 13 4.8 16.1 0.00 9.70 0.00 94 1015.8
20260502063258 12 35 3.2 14.5 0.00 9.70 0.00 94 1015.8
20260502062754 12 61 3.2 11.3 0.00 9.70 0.00 95 1015.7
20260502062229 12 56 3.2 8.0 0.00 9.70 0.00 95 1015.7
20260502061931 12 52 3.2 9.7 0.00 9.70 0.00 94 1015.7
20260502061159 12 57 3.2 9.7 0.00 9.70 0.00 94 1015.7
20260502060658 12 38 4.8 11.3 0.00 9.70 0.00 94 1015.6
20260502060130 13 46 4.8 11.3 0.00 9.70 0.00 94 1015.7
20260502055626 13 103 4.8 16.1 0.00 9.73 0.00 95 1015.7
20260502055059 13 28 4.8 16.1 0.00 9.78 0.00 95 1015.7
20260502054820 13 53 6.4 19.3 0.00 9.83 0.00 95 1015.7
20260502054029 13 53 6.4 19.3 0.00 9.83 0.00 95 1015.6
20260502053528 13 345 4.8 17.7 0.00 9.83 0.00 95 1015.6
20260502053025 13 342 6.4 14.5 0.00 9.83 0.00 95 1015.6
20260502052459 13 340 6.4 14.5 0.00 9.83 0.00 95 1015.6
20260502051955 13 40 4.8 14.5 0.00 9.83 0.00 95 1015.7
20260502051453 13 355 4.8 16.1 0.00 9.83 0.00 96 1015.6
20260502050925 13 51 8.0 22.5 0.00 9.86 0.00 96 1015.6
20260502050649 13 56 6.4 22.5 0.00 10.01 0.00 96 1015.6
20260502045858 13 30 6.4 17.7 0.00 10.26 10.16 96 1015.5
20260502045839 13 48 6.4 17.7 0.00 10.31 10.16 96 1015.4
20260502044856 13 28 4.8 14.5 0.00 10.46 10.16 96 1015.5
20260502044331 13 5 4.8 14.5 0.00 10.54 10.16 96 1015.5
20260502044031 13 65 6.4 16.1 0.00 10.54 10.16 96 1015.5
20260502043250 13 69 6.4 17.7 0.00 10.54 10.16 96 1015.5
20260502042728 13 44 8.0 19.3 0.00 10.54 10.16 96 1015.4
20260502042225 13 18 6.4 19.3 0.00 10.54 10.16 96 1015.3
20260502041722 13 311 6.4 17.7 0.00 10.54 10.16 97 1015.3
20260502041225 13 303 6.4 17.7 0.00 10.54 10.16 97 1015.3
20260502040653 13 31 4.8 12.9 0.00 10.54 10.16 97 1015.5
20260502040135 13 26 4.8 11.3 0.00 10.54 10.16 97 1015.7
20260502035611 13 323 4.8 12.9 0.00 10.54 10.16 97 1015.7
20260502035044 13 0 6.4 14.5 0.00 10.54 10.16 97 1015.6
20260502034542 13 19 4.8 12.9 0.00 10.54 10.16 97 1015.6
20260502034024 13 13 4.8 16.1 0.00 10.54 10.16 97 1015.4
20260502033524 13 14 4.8 16.1 0.00 10.54 10.16 97 1015.4
20260502033245 13 5 6.4 16.1 0.00 10.54 10.16 97 1015.3
20260502032511 13 49 8.0 16.1 0.00 10.54 10.16 97 1015.2
20260502031953 13 307 8.0 22.5 0.00 10.54 10.16 97 1015.1
20260502031453 13 19 6.4 22.5 0.00 10.54 10.16 97 1015.0
20260502031204 13 0 4.8 12.9 0.05 10.54 10.16 97 1015.0
20260502030441 13 355 4.8 14.5 0.08 10.54 10.16 97 1014.8
20260502025940 13 24 4.8 14.5 0.08 10.54 10.16 97 1014.8
20260502025440 13 33 4.8 9.7 0.08 10.54 10.16 97 1014.6
20260502024943 13 5 6.4 16.1 0.10 10.54 10.16 97 1014.5
20260502024650 13 79 6.4 16.1 0.13 10.54 10.16 97 1014.2
20260502023906 13 66 6.4 16.1 0.15 10.54 10.16 97 1013.9
20260502023343 13 202 6.4 16.1 0.15 10.54 10.16 97 1013.9
20260502023110 13 111 4.8 11.3 0.18 10.54 10.16 97 1013.9
20260502022331 13 57 4.8 16.1 0.20 10.54 10.16 97 1014.1
20260502021831 13 13 4.8 12.9 0.23 10.54 10.16 97 1014.0
20260502021314 13 39 4.8 16.1 0.25 10.54 10.16 97 1013.9
20260502020816 13 73 4.8 14.5 0.23 10.49 10.11 97 1013.8
20260502020310 13 15 4.8 14.5 0.20 10.46 10.08 97 1013.7
20260502015807 13 16 4.8 12.9 0.20 10.46 10.08 97 1013.9
20260502015310 13 42 4.8 11.3 0.20 10.44 10.06 97 1013.8
20260502014750 13 16 4.8 12.9 0.20 10.44 10.06 97 1013.5
20260502014251 13 22 3.2 12.9 0.18 10.44 10.03 97 1013.8
20260502013740 13 25 3.2 11.3 0.15 10.41 10.01 97 1013.6
20260502013240 13 355 6.4 16.1 0.18 10.41 10.01 97 1013.2
20260502012726 14 355 4.8 16.1 0.15 10.39 9.98 97 1013.0
20260502012227 14 21 6.4 19.3 0.13 10.36 9.96 97 1013.0
20260502011726 14 343 6.4 19.3 0.10 10.34 9.93 97 1012.8
20260502011228 14 50 6.4 16.1 0.10 10.31 9.91 97 1013.0
20260502010707 14 22 4.8 16.1 0.13 10.29 9.88 97 1013.3
20260502010409 15 13 4.8 11.3 0.18 10.29 9.88 97 1013.5
20260502005647 15 0 4.8 12.9 0.18 10.26 9.86 97 1013.5
20260502005125 15 0 4.8 12.9 0.20 10.26 9.86 98 1012.7
20260502004610 15 0 4.8 14.5 0.23 10.26 9.86 97 1012.0
20260502004328 15 0 4.8 14.5 0.23 10.26 9.86 97 1011.8
20260502003611 15 0 6.4 17.7 0.23 10.26 9.86 97 1011.4
20260502003313 15 0 4.8 17.7 0.20 10.24 9.83 97 1011.6
20260502002526 15 0 4.8 14.5 0.20 10.24 9.83 97 1012.2
20260502002002 15 0 4.8 11.3 0.23 10.24 9.83 97 1012.8
20260502001458 15 0 3.2 11.3 0.23 10.21 9.83 97 1012.8
20260502001159 15 0 4.8 11.3 0.28 10.21 9.80 97 1012.2
20260502000412 15 0 4.8 12.9 0.36 10.13 9.73 97 1012.4
20260501235911 15 40 4.8 12.9 0.33 10.08 9.68 97 1012.5
20260501235625 15 51 4.8 14.5 0.36 10.06 9.65 97 1012.7
20260501234838 15 0 4.8 14.5 0.46 10.06 9.65 97 1012.2
20260501234338 15 0 4.8 12.9 0.51 10.03 9.63 98 1011.9
20260501233819 15 0 6.4 14.5 0.51 10.03 9.63 97 1011.9
20260501233303 15 0 4.8 16.1 0.51 10.03 9.63 97 1011.7
20260501232800 15 90 4.8 20.9 0.51 10.03 9.63 97 1011.4
20260501232744 15 351 6.4 20.9 0.51 10.03 9.63 97 1011.2
20260501231756 15 27 8.0 20.9 0.48 10.01 9.60 97 1010.9
20260501231256 15 84 8.0 20.9 0.43 9.96 9.55 97 1010.4
20260501230732 15 111 4.8 14.5 0.33 9.86 9.47 98 1011.0
20260501230208 15 76 4.8 14.5 0.23 9.75 9.37 98 1011.7
20260501225649 15 70 4.8 14.5 0.20 9.73 9.32 97 1011.7
20260501225132 15 40 6.4 19.3 0.15 9.65 9.25 97 1010.9
20260501224609 15 95 4.8 19.3 0.08 9.53 9.12 97 1010.5
20260501224051 15 40 8.0 22.5 0.08 9.53 9.12 97 1010.4
20260501223531 15 0 9.7 24.1 0.10 9.53 9.12 97 1009.6
20260501223030 15 89 8.0 30.6 0.13 9.53 9.12 97 1009.6
20260501222531 15 49 8.0 25.7 0.15 9.53 9.12 98 1009.6
20260501222233 16 63 8.0 25.7 0.15 9.53 9.12 97 1009.8
20260501221445 16 0 6.4 22.5 0.15 9.53 9.12 98 1009.9
20260501220946 16 60 4.8 20.9 0.15 9.53 9.12 98 1010.1
20260501220446 16 103 4.8 12.9 0.15 9.53 9.12 98 1010.4
20260501215920 16 28 6.4 12.9 0.18 9.53 9.12 98 1010.7
20260501215358 16 56 4.8 12.9 0.18 9.50 9.09 98 1011.3
20260501214838 16 70 4.8 11.3 0.20 9.50 9.09 98 1011.3
20260501214317 16 5 6.4 14.5 0.18 9.45 9.04 98 1011.0
20260501214037 16 5 4.8 14.5 0.20 9.45 9.04 98 1011.5
20260501213316 16 19 4.8 12.9 0.18 9.40 8.99 98 1011.3
20260501212758 16 13 3.2 12.9 0.18 9.37 8.97 98 1011.0
20260501212259 16 331 4.8 11.3 0.23 9.37 8.97 98 1011.1
20260501211759 16 19 4.8 11.3 0.23 9.37 8.97 98 1010.9
20260501211507 16 25 4.8 12.9 0.28 9.37 8.97 98 1010.7
20260501210747 16 310 6.4 14.5 0.30 9.37 8.97 98 1009.9
20260501210248 16 36 4.8 14.5 0.38 9.37 8.97 98 1009.6
20260501205728 16 24 4.8 12.9 0.38 9.35 8.94 98 1009.8
20260501205229 16 17 4.8 14.5 0.36 9.32 8.92 98 1009.8
20260501204727 16 32 4.8 14.5 0.33 9.30 8.89 98 1009.4
20260501204229 16 11 3.2 11.3 0.30 9.27 8.86 98 1010.4
20260501203954 16 26 4.8 11.3 0.28 9.25 8.84 98 1010.7
20260501203204 16 55 4.8 14.5 0.25 9.22 8.81 98 1009.9
20260501202640 16 108 6.4 16.1 0.25 9.19 8.79 98 1009.5
20260501202119 16 79 6.4 16.1 0.20 9.14 8.74 98 1009.6
20260501201619 16 47 6.4 14.5 0.20 9.14 8.74 98 1009.6
20260501201116 16 117 6.4 16.1 0.13 9.07 8.66 98 1008.8
20260501200551 16 45 6.4 16.1 0.13 9.04 8.64 98 1009.5
20260501200051 16 52 6.4 14.5 0.08 8.99 8.59 98 1010.0
20260501195548 17 9 6.4 14.5 0.08 8.97 8.56 98 1010.0
20260501195047 17 31 4.8 11.3 0.13 8.97 8.56 98 1009.6
20260501194744 17 17 3.2 9.7 0.13 8.97 8.56 98 1009.4
20260501194017 17 44 3.2 9.7 0.23 8.97 8.56 98 1009.4
20260501193519 17 74 3.2 12.9 0.28 8.97 8.56 98 1009.5
20260501193004 17 66 3.2 12.9 0.33 8.97 8.56 98 1009.4
20260501192502 17 34 3.2 9.7 0.33 8.94 8.53 98 1009.3
20260501192002 17 34 1.6 8.0 0.36 8.94 8.53 98 1009.4
20260501191502 17 42 3.2 8.0 0.36 8.94 8.53 98 1009.4
20260501190941 17 0 3.2 12.9 0.36 8.92 8.53 98 1009.6
20260501190903 17 0 3.2 12.9 0.38 8.92 8.51 98 1009.9
20260501185917 17 91 4.8 11.3 0.41 8.92 8.51 98 1009.4
20260501185418 17 76 3.2 11.3 0.38 8.86 8.46 98 1009.3
20260501184915 17 79 3.2 8.0 0.36 8.84 8.43 98 1009.1
20260501184351 17 83 3.2 8.0 0.36 8.81 8.41 98 1009.3
20260501183849 16 351 1.6 8.0 0.25 8.71 8.33 98 1009.4
20260501183350 16 17 1.6 14.5 0.20 8.66 8.26 98 1009.8
20260501182848 16 330 3.2 14.5 0.20 8.64 8.23 98 1009.9
20260501182348 16 33 4.8 17.7 0.18 8.61 8.20 98 1008.7
20260501181823 16 60 6.4 17.7 0.15 8.59 8.18 98 1007.5
20260501181258 16 98 8.0 30.6 0.13 8.56 8.15 98 1008.0
20260501180729 16 94 9.7 30.6 0.15 8.53 8.13 98 1007.8